Regional Weather Roundup
Issued by NWS

Home | Current Version | Previous Version | Graphics & Text | Print | Product List | Glossary On
Versions: 1 2 3 4 5 6 7 8 9 10 11 12 13 14 15 16 17 18 19 20 21 22 23 24 25 26 27 28 29 30 31 32 33 34 35 36 37 38 39 40 41 42 43 44 45 46 47 48 49 50
000
ASUS43 KLOT 281600
RWRIL

ILLINOIS REGIONAL WEATHER ROUNDUP
NATIONAL WEATHER SERVICE CHICAGO/ROMEOVILLE IL
1100 AM CDT THU MAY 28 2015

NOTE: "FAIR" INDICATES FEW OR NO CLOUDS BELOW 12,000 FEET WITH NO
SIGNIFICANT WEATHER AND/OR OBSTRUCTIONS TO VISIBILITY.

* THESE STATIONS ARE NOT UNDER NWS QUALITY CONTROL. THEY ALSO MAY NOT
  REPORT WEATHER SUCH AS PRECIPITATION OR FOG.

ILZ001-002-007-009-015-016-024-281700-
NORTHWEST ILLINOIS

CITY           SKY/WX    TMP DP  RH WIND       PRES   REMARKS
MOLINE         SUNNY     80  58  46 S14       30.15F HX  80
STERLING*      SUNNY     79  61  53 S7        30.19S HX  80
$$

ILZ003-004-008-010-011-017-018-281700-
NORTH CENTRAL ILLINOIS

CITY           SKY/WX    TMP DP  RH WIND       PRES   REMARKS
ROCKFORD       PTSUNNY   78  59  51 S8        30.20F
$$

ILZ005-006-012>014-019>023-281700-
NORTHEAST ILLINOIS

CITY           SKY/WX    TMP DP  RH WIND       PRES   REMARKS
CHICAGO-OHARE  PTSUNNY   78  52  40 SE6       30.20F
CHICAGO-MIDWAY PTSUNNY   79  56  45 SE12      30.21S HX  80
AURORA         SUNNY     77  57  50 S9        30.21F
WAUKEGAN       SUNNY     76  61  59 SE9       30.20S
DUPAGE AIRPORT SUNNY     77  56  48 S9        30.20F
WHEELING       SUNNY     78  53  41 S6        30.21F
NORTHERLY ISL    N/A     65  55  70 E1          N/A
$$

LMZ740>746-281700-
SOUTHERN LAKE MICHIGAN

STATION/POSITION SKY/WX   TEMP    WIND        PRES    VSBY  WAVE
                          AIR SEA DIR/SP/G                  HT/PER
                          (F)     (DEG/KT/KT) (MB)    (MI)  (FT/S)
SOUTHERN BUOY              45 38  180/  8/  8 1024.1S         0
HARRISON CRIB              65     160/ 10/ 11   N/A
BURNHAM HARBOR             65     140/  4/  5   N/A
CALUMET HARBOR             68      80/  4/  5   N/A
BURNS HARBOR               66     310/  2/  3 1024.0R
MICHIGAN CITY              69      40/  2/  3   N/A
MICHIGAN CITY 6N           60 54  110/  2/  4   N/A           0
ST. JOSEPH                 58 57  270/  2/  4   N/A           0
$$

ILZ025>027-034>036-040-047-049-050-058-095>099-281700-
WEST-CENTRAL ILLINOIS

CITY           SKY/WX    TMP DP  RH WIND       PRES   REMARKS
QUINCY         CLOUDY    75  56  51 SE12      30.13F
$$

ILZ028>032-037-038-041>044-048-051>054-059>061-281700-
CENTRAL ILLINOIS

CITY           SKY/WX    TMP DP  RH WIND       PRES   REMARKS
DECATUR        SUNNY     78  56  46 E12       30.17F
PEORIA         SUNNY     79  54  41 SE12G21   30.18F
SPRINGFIELD    SUNNY     79  57  46 E13       30.16F HX  80
TAYLORVILLE    NOT AVBL
$$

ILZ033-039-045-046-055>057-062-063-281700-
EAST-CENTRAL ILLINOIS

CITY           SKY/WX    TMP DP  RH WIND       PRES   REMARKS
CHAMPAIGN      SUNNY     80  50  34 NE14      30.19F HX  80
$$

ILZ079-100>102-281700-
SOUTHWEST ILLINOIS

CITY           SKY/WX    TMP DP  RH WIND       PRES   REMARKS
BELLEVILLE     PTSUNNY   78  72  82 S7        30.13S
CAHOKIA*       SUNNY     77  68  73 S8        30.14S
$$

ILZ064>066-069>071-074>076-080>082-084>086-088>090-092>094-281700-
SOUTH-CENTRAL ILLINOIS

CITY           SKY/WX    TMP DP  RH WIND       PRES   REMARKS
CARBONDALE     MOSUNNY   77  68  73 SE8       30.16F
MARION         PTSUNNY   79  70  73 MISG      30.17F HX  81
MT. VERNON     MOSUNNY   79  68  69 SE6       30.16F HX  81
$$

ILZ067-068-072-073-078-083-087-091-281700-
SOUTHEAST ILLINOIS

CITY           SKY/WX    TMP DP  RH WIND       PRES   REMARKS
LAWRENCEVILLE  PTSUNNY   79  66  64 SE7       30.18F HX  81
$$

ABBREVIATIONS USED IN REMARKS
   TC - TEMPERATURE IN CELSIUS
  WCI - WIND CHILL INDEX
   HX - HEAT INDEX
  VSB - VISIBILITY
$$




USA.gov is the U.S. government's official web portal to all federal, state and local government web resources and services.